Wind_Speed
5 5 4 4 3 3 3 3 3 3 3 2 1 1 2 2 2 3 3 4 4 3 3 3 4 5 5 5 5 5 5 6 6 6 6 5 5 5 5 5 5 6 8
5 5 5 4 4 4 4 4 3 3 3 3 2 2 2 2 3 3 4 5 5 4 5 5 5 6 6 6 6 7 7 7 7 7 7 7 6 6 6 6 6 7 7
5 5 6 5 4 5 4 4 4 3 3 3 2 2 3 4 4 4 4 5 6 6 6 6 6 7 7 7 8 8 7 8 8 8 8 8 7 7 7 7 6 6 6
6 6 5 5 5 5 5 5 4 4 4 4 3 3 3 4 5 5 5 5 6 6 6 7 7 7 8 8 8 8 8 8 8 8 9 8 7 7 7 7 7 6 6
6 6 5 5 5 5 5 5 5 4 4 4 4 4 4 4 5 5 5 5 6 6 6 7 8 8 9 9 8 8 8 8 7 8 8 8 8 8 8 7 7 6 6
6 6 6 5 5 5 6 5 5 5 5 5 5 5 4 5 5 6 6 6 6 6 6 7 8 8 9 9 9 9 8 8 8 8 8 9 8 8 8 8 8 8 7
6 6 5 5 5 5 6 6 5 5 5 5 5 5 5 5 6 6 6 7 7 7 7 7 7 8 9 9 9 9 9 9 9 9 9 10 10 10 10 10 9 9 9
6 6 5 5 5 6 6 6 5 5 5 5 5 6 6 6 6 6 7 8 8 8 7 8 8 9 9 9 9 9 9 9 9 9 9 10 10 10 11 11 10 10 10
6 6 6 5 6 6 6 6 6 6 5 5 6 6 6 7 7 6 7 7 8 8 8 8 9 9 10 10 9 10 10 9 9 9 10 10 10 11 11 11 11 11 11
6 6 6 6 7 7 7 7 6 6 6 6 7 7 7 7 7 8 8 8 8 9 9 9 9 10 10 10 10 10 10 10 10 10 11 10 10 10 10 10 11 11 11
7 7 7 7 7 7 7 7 7 7 7 7 7 7 8 8 8 8 8 8 8 8 9 10 10 10 10 10 10 10 10 10 11 11 11 11 11 11 11 11 11 12 11
8 7 7 7 7 7 7 7 7 8 8 8 7 7 8 8 8 8 8 8 8 8 9 9 10 10 10 10 10 11 11 11 12 12 12 12 12 12 12 12 12 13 12
9 8 8 8 8 8 8 8 8 8 8 8 8 8 8 8 8 8 8 8 9 9 9 10 10 9 10 10 10 11 12 12 13 13 13 13 13 13 13 13 13 13 13
9 9 9 9 9 9 9 8 8 8 8 8 8 8 8 8 8 9 9 9 10 10 10 10 10 10 10 10 11 12 13 13 13 13 13 13 13 13 14 14 14 14 14
11 11 10 10 10 10 9 9 8 8 8 8 9 9 9 9 9 9 9 10 10 10 10 11 11 11 11 11 12 12 12 13 14 14 14 14 14 14 14 15 15 15 14
11 11 11 10 11 11 11 10 10 10 10 10 10 9 9 9 10 10 10 10 10 11 11 11 11 12 13 13 13 13 13 14 14 14 14 14 15 15 15 16 16 16 15
11 12 12 11 11 11 11 10 11 11 11 10 10 10 10 10 10 10 11 11 11 12 12 12 13 13 14 14 14 14 14 14 15 15 16 15 15 16 16 16 16 16 16
12 12 12 12 12 11 11 12 12 12 11 11 11 11 12 12 12 12 12 12 12 13 13 14 15 15 15 15 15 16 16 16 16 16 17 17 17 17 17 16 16 16 16
11 12 12 12 12 12 12 13 13 13 13 12 12 12 12 12 13 13 13 13 13 14 15 16 16 17 17 17 17 17 18 18 18 18 18 18 18 18 18 17 17 17 17
12 12 12 13 13 13 13 13 14 14 13 13 12 13 13 12 13 14 14 15 15 16 16 16 17 17 18 18 19 19 19 19 19 19 19 19 19 19 19 18 18 17 17
14 14 14 14 14 14 14 14 14 14 14 14 14 13 13 14 14 15 15 16 16 17 17 17 17 18 18 19 19 19 20 20 20 20 20 19 19 19 19 18 17 17 17
15 15 15 15 15 14 15 15 15 15 15 15 15 15 15 15 15 15 16 16 16 17 17 18 18 18 19 19 20 20 20 20 20 20 20 20 20 19 19 19 18 17 17
16 17 17 16 16 16 16 17 16 16 16 16 16 16 16 16 16 16 17 17 18 18 18 18 19 19 20 20 20 20 20 20 20 20 20 21 20 20 19 19 19 18 17
17 17 18 17 17 17 18 18 17 17 17 17 18 18 17 17 17 17 18 18 18 19 19 19 19 20 20 20 20 21 21 21 21 21 21 21 21 21 21 20 20 19 18
18 19 19 19 19 19 19 19 18 18 18 19 19 19 19 18 18 19 19 19 20 20 20 21 21 21 22 22 22 22 22 22 21 22 22 22 22 22 22 21 21 20 19
19 20 20 20 20 20 20 20 20 20 20 21 20 20 20 21 21 20 20 21 21 21 21 22 22 23 23 23 23 23 22 22 22 22 22 23 23 23 23 22 22 21 21
Wind_Direction
181 181 186 183 182 171 174 174 170 166 175 183 189 206 194 208 224 235 235 231 234 243 249 258 258 255 255 253 250 250 254 259 261 262 261 263 268 276 284 287 282 281 278
193 196 199 202 201 196 195 194 193 194 203 212 213 237 231 246 253 255 250 247 250 254 257 259 257 260 262 262 256 257 257 260 263 261 261 264 268 271 278 283 285 289 279
196 201 206 212 213 210 206 205 205 208 225 228 230 247 257 266 268 268 264 265 262 260 258 261 259 261 263 262 261 261 262 260 261 258 259 264 265 266 272 282 286 289 278
201 204 209 212 213 211 213 219 216 218 234 233 241 261 275 277 274 269 269 269 272 271 263 263 265 265 266 267 267 265 266 265 261 258 259 261 264 264 269 279 282 288 278
209 213 217 214 212 215 222 226 220 223 235 242 254 265 274 281 281 269 269 270 274 275 269 265 268 268 269 270 269 269 270 259 255 259 260 261 263 262 267 272 276 283 275
214 218 218 222 221 228 230 229 225 229 244 254 263 264 269 275 273 270 270 273 273 273 273 269 269 272 272 273 274 271 264 255 252 256 260 260 261 262 265 268 271 274 273
208 213 219 228 229 233 235 229 227 235 246 257 266 271 279 283 278 274 276 277 275 275 275 274 273 273 272 277 276 272 265 260 256 257 255 256 262 264 265 268 267 267 269
206 212 221 229 237 234 232 233 237 240 249 260 269 277 280 284 280 271 275 275 274 275 273 270 270 270 273 276 275 275 274 265 264 258 254 258 260 261 261 265 266 263 263
213 216 226 235 234 230 233 238 242 247 255 265 274 280 280 280 281 278 278 276 274 274 272 269 270 272 273 275 272 274 273 265 263 258 257 260 263 263 262 265 265 263 261
222 232 238 235 238 239 237 240 246 252 260 270 276 282 281 281 279 286 283 282 280 275 275 276 278 278 278 277 275 272 271 268 264 262 263 266 266 267 265 263 261 260 262
237 240 241 237 236 239 244 246 250 256 262 271 274 276 279 280 282 287 286 283 280 279 276 277 280 282 281 276 273 274 275 270 265 264 264 265 267 268 267 264 262 260 261
239 241 242 244 245 247 248 253 254 258 262 268 271 274 277 280 283 284 282 281 281 281 279 278 281 283 281 280 279 278 277 275 270 267 266 266 267 267 265 264 263 262 265
241 242 245 248 251 252 252 254 255 259 262 263 267 272 277 278 282 283 283 284 285 285 283 284 285 288 286 284 279 278 278 277 278 275 271 268 267 267 266 263 261 260 262
244 248 251 252 253 254 252 253 255 258 260 265 269 271 272 274 279 284 285 285 286 287 286 287 290 289 287 286 283 279 278 277 278 279 276 273 271 268 267 267 263 261 262
245 249 250 252 253 250 248 253 258 261 263 267 270 272 272 274 278 282 283 284 286 288 289 289 290 289 288 287 287 287 283 280 281 281 279 276 274 272 270 270 267 265 265
245 248 250 253 255 252 252 254 259 262 263 265 269 272 272 275 278 281 283 285 286 288 291 292 292 291 290 288 287 286 284 282 279 279 279 278 275 272 271 271 271 270 266
247 249 251 255 258 259 259 260 261 263 265 266 268 270 273 278 280 281 284 286 286 288 290 290 291 290 289 287 286 284 283 281 279 279 280 279 279 275 273 273 272 270 268
251 252 253 256 258 262 262 261 265 263 265 267 269 271 275 277 280 283 285 285 284 286 288 289 290 289 289 287 285 283 281 281 280 278 279 280 279 279 276 274 273 270 267
251 253 256 258 261 261 262 263 265 266 265 268 271 273 276 278 281 283 285 284 285 286 288 289 288 288 288 286 284 282 281 279 278 277 277 278 278 278 277 274 273 271 268
254 255 258 261 262 263 263 265 266 268 269 268 271 273 275 279 282 284 285 287 288 288 288 288 287 288 288 286 284 282 281 279 276 274 275 275 275 275 275 274 273 271 267
255 256 259 263 265 263 264 265 268 268 269 270 270 271 274 278 281 284 286 289 290 289 288 288 289 290 289 287 286 284 282 280 278 274 272 272 272 272 272 273 272 270 267
255 256 258 262 264 263 264 265 268 271 271 272 273 274 276 279 281 284 287 289 289 289 289 289 290 291 291 289 286 285 283 281 280 278 274 270 269 268 270 271 272 271 267
258 257 257 259 261 262 264 267 270 272 275 275 273 275 277 279 282 285 287 287 289 290 291 290 291 291 292 290 287 285 282 281 280 279 275 270 267 266 267 268 268 270 268
262 261 258 258 260 262 264 267 269 271 273 275 275 276 278 278 280 285 287 288 290 291 291 291 291 292 292 291 289 287 284 282 281 280 276 270 265 264 266 266 266 267 267
262 262 262 261 261 262 262 264 266 270 272 275 278 277 277 279 281 285 286 288 289 291 291 290 291 292 293 292 289 287 286 284 282 281 276 271 265 263 264 265 266 265 264
262 263 263 262 261 261 262 263 264 269 273 276 277 278 279 280 283 286 287 288 289 290 291 290 290 291 291 291 289 287 285 284 285 282 277 271 266 263 263 264 265 266 265
Height
5881 5880 5880 5881 5881 5881 5881 5880 5880 5880 5880 5880 5880 5879 5879 5879 5879 5879 5879 5879 5879 5879 5879 5878 5878 5878 5878 5877 5877 5877 5876 5876 5875 5875 5875 5875 5874 5874 5873 5871 5870 5869 5867
5880 5880 5880 5880 5880 5880 5880 5880 5880 5880 5880 5880 5880 5879 5879 5879 5879 5879 5878 5878 5878 5878 5878 5877 5877 5877 5877 5876 5876 5875 5875 5874 5873 5873 5873 5873 5873 5872 5871 5870 5869 5866 5863
5880 5880 5880 5880 5880 5880 5880 5880 5880 5880 5880 5879 5879 5879 5878 5878 5878 5878 5878 5877 5877 5877 5877 5876 5876 5876 5875 5875 5874 5873 5872 5872 5871 5871 5871 5872 5871 5871 5870 5869 5868 5865 5863
5879 5879 5879 5879 5879 5879 5880 5880 5880 5880 5879 5879 5879 5878 5878 5877 5877 5877 5877 5877 5876 5876 5876 5875 5875 5874 5874 5873 5872 5872 5871 5869 5868 5869 5869 5870 5870 5869 5869 5868 5867 5865 5863
5878 5879 5879 5879 5879 5879 5879 5879 5879 5879 5879 5879 5878 5878 5877 5876 5876 5875 5875 5875 5875 5874 5874 5874 5874 5873 5873 5872 5871 5870 5869 5866 5865 5867 5868 5868 5868 5868 5868 5867 5866 5865 5864
5878 5878 5878 5878 5878 5878 5878 5879 5879 5878 5878 5878 5878 5877 5876 5876 5875 5874 5874 5874 5874 5873 5873 5873 5872 5872 5871 5870 5870 5869 5868 5866 5866 5866 5867 5867 5867 5867 5867 5866 5865 5865 5864
5877 5877 5877 5877 5878 5878 5878 5878 5878 5878 5878 5877 5877 5876 5876 5875 5873 5873 5873 5873 5872 5872 5872 5871 5871 5870 5870 5869 5869 5868 5868 5866 5865 5866 5866 5866 5865 5865 5865 5865 5864 5864 5863
5876 5876 5876 5877 5877 5877 5877 5877 5877 5877 5877 5876 5876 5875 5875 5874 5873 5872 5872 5871 5871 5870 5870 5870 5869 5869 5868 5868 5867 5867 5866 5866 5865 5865 5865 5864 5864 5863 5863 5863 5862 5862 5862
5875 5875 5876 5876 5876 5876 5876 5876 5876 5876 5876 5875 5875 5874 5874 5873 5872 5872 5871 5870 5870 5869 5869 5868 5868 5867 5867 5866 5865 5865 5864 5864 5864 5863 5863 5862 5862 5861 5861 5861 5860 5860 5860
5875 5875 5875 5875 5875 5875 5875 5875 5875 5875 5874 5874 5874 5873 5873 5872 5871 5871 5870 5869 5868 5868 5867 5867 5866 5865 5865 5864 5863 5863 5862 5862 5861 5861 5861 5860 5860 5859 5859 5858 5858 5858 5858
5874 5874 5874 5874 5874 5874 5874 5874 5874 5874 5873 5873 5872 5872 5871 5871 5870 5869 5868 5868 5867 5866 5865 5865 5864 5863 5863 5862 5861 5861 5860 5859 5859 5859 5858 5858 5857 5857 5857 5856 5856 5856 5855
5873 5873 5873 5873 5873 5873 5873 5873 5872 5872 5872 5871 5871 5870 5870 5869 5868 5868 5867 5866 5865 5864 5864 5863 5862 5862 5861 5860 5859 5858 5858 5857 5856 5856 5855 5855 5855 5855 5854 5854 5854 5853 5853
5871 5871 5871 5871 5872 5872 5871 5871 5871 5870 5870 5869 5869 5869 5868 5867 5867 5866 5865 5864 5863 5863 5862 5861 5860 5860 5859 5858 5857 5856 5855 5855 5854 5853 5853 5852 5852 5852 5851 5851 5851 5851 5850
5870 5870 5870 5870 5870 5870 5870 5869 5869 5869 5868 5868 5867 5867 5866 5866 5865 5864 5863 5862 5862 5861 5860 5859 5858 5857 5856 5856 5855 5854 5853 5852 5851 5851 5850 5849 5849 5849 5848 5848 5848 5847 5847
5868 5868 5868 5868 5868 5868 5868 5868 5867 5867 5866 5866 5865 5865 5864 5864 5863 5862 5861 5861 5860 5859 5858 5857 5856 5855 5854 5853 5852 5851 5851 5849 5848 5848 5847 5846 5846 5845 5845 5845 5844 5844 5844
5866 5866 5866 5866 5866 5866 5866 5866 5865 5864 5864 5863 5863 5862 5862 5862 5861 5860 5859 5858 5857 5856 5855 5854 5853 5852 5851 5850 5849 5848 5848 5847 5845 5844 5844 5843 5842 5842 5842 5841 5841 5840 5840
5863 5864 5864 5864 5864 5864 5863 5863 5863 5862 5862 5861 5861 5860 5860 5859 5858 5858 5857 5856 5855 5854 5853 5852 5851 5850 5848 5847 5846 5845 5844 5843 5842 5841 5840 5840 5839 5839 5838 5838 5837 5837 5837
5861 5861 5861 5861 5861 5861 5861 5861 5861 5860 5859 5859 5858 5858 5857 5856 5856 5855 5854 5853 5852 5851 5850 5849 5848 5846 5845 5844 5842 5841 5840 5839 5838 5838 5837 5836 5835 5835 5834 5834 5833 5833 5833
5858 5858 5859 5859 5859 5858 5858 5858 5858 5858 5857 5856 5855 5855 5854 5854 5853 5852 5851 5850 5849 5848 5847 5846 5844 5843 5841 5840 5838 5837 5836 5835 5834 5833 5833 5832 5831 5831 5830 5830 5830 5829 5829
5855 5856 5856 5856 5856 5856 5855 5855 5855 5855 5854 5853 5852 5852 5851 5850 5850 5849 5848 5847 5846 5844 5843 5842 5840 5838 5837 5835 5833 5832 5830 5829 5828 5828 5828 5827 5827 5826 5826 5825 5825 5825 5825
5852 5852 5853 5853 5852 5852 5852 5852 5852 5851 5851 5850 5849 5849 5848 5847 5846 5845 5844 5843 5842 5841 5839 5838 5836 5834 5832 5830 5828 5827 5825 5824 5823 5822 5822 5822 5822 5822 5821 5821 5821 5821 5821
5848 5849 5849 5849 5849 5849 5849 5848 5848 5848 5847 5846 5846 5845 5844 5843 5842 5842 5840 5839 5838 5837 5835 5833 5831 5830 5828 5825 5823 5822 5820 5819 5817 5817 5816 5816 5817 5817 5817 5816 5816 5816 5817
5844 5845 5845 5845 5845 5845 5845 5845 5844 5844 5843 5843 5842 5841 5841 5840 5839 5837 5836 5835 5834 5832 5830 5828 5827 5825 5823 5820 5818 5816 5815 5813 5812 5811 5810 5810 5811 5811 5812 5812 5812 5812 5812
5840 5840 5840 5841 5841 5841 5841 5841 5840 5840 5839 5838 5838 5837 5836 5835 5834 5833 5832 5831 5829 5827 5826 5824 5822 5820 5818 5815 5813 5811 5809 5807 5806 5805 5804 5804 5805 5805 5806 5806 5807 5807 5807
5835 5835 5836 5836 5836 5836 5836 5836 5836 5835 5835 5834 5833 5832 5832 5831 5830 5829 5827 5826 5824 5822 5820 5818 5816 5814 5812 5809 5807 5805 5803 5801 5800 5799 5798 5798 5798 5799 5800 5801 5802 5802 5802
5830 5830 5830 5830 5830 5830 5831 5831 5831 5830 5830 5829 5828 5828 5827 5826 5825 5823 5822 5820 5819 5817 5815 5813 5811 5808 5806 5803 5801 5798 5797 5795 5793 5792 5791 5791 5792 5793 5794 5795 5796 5797 5797